SKYNET 5B

Last updated on Tue Sep 22 2026 00:03:11 GMT+0000 (Coordinated Universal Time)

1 32294U 07056B 26264.56533770 .00000139 00000+0 00000+0 0 9995 2 32294 5.4902 72.2998 0003730 114.3470 42.4150 1.00273186 69168
UTC large
Height (km)
Speed (km/s)
/
Latitude / Longitude
Inclination (degrees)
Orbital Period (minutes)
Azimuth
Elevation
Range (km)
Doppler Factor

Next 0 passes for location: London (51.5072 / 0.1276)

No passes found over London.
SKYNET 5B